Home   Weather   Santiago del Estero   Past weeks
Flag for Argentina

Past Weather in Santiago del Estero, Santiago del Estero, Argentina — Yesterday and Last 2 Weeks

Now
85 °F

Sunny.


Feels Like: 84 °F
Forecast: N/A
Wind: 7 mph from East

Location: Santiago Del Estero Aero.

Current Time: Dec 5, 2019 at 7:12:20 pm

Latest Report: Dec 5, 2019 at 6:00 pm


Visibility: 6 mi

Pressure: 29.83 "Hg

Humidity: 35%

Dew Point: 55 °F

Location of Santiago del EsteroLocation

Past Weather in Santiago del Estero — Graph

°F

Santiago del Estero Temperature Yesterday

Maximum temperature yesterday: 76 °F (at 11:00 am)
Minimum temperature yesterday: 63 °F (at 11:00 pm)
Average temperature yesterday: 69 °F

High & Low Weather Summary for the Past Weeks

 TemperatureHumidityPressure
High106 °F (Nov 20, 5:00 pm)98% (Nov 27, 4:00 am)30.11 "Hg (Nov 27, 4:00 am)
Low56 °F (Dec 5, 7:00 am)21% (Nov 20, 5:00 pm)28.85 "Hg (Nov 25, 7:00 am)
Average78 °F64%29.81 "Hg
* Reported Nov 20 5:00 pm — Dec 5 5:00 pm, Santiago del Estero. Weather by CustomWeather, © 2019

Note: Actual official high and low records may vary slightly from our data, if they occured in-between our weather recording intervals... More about our weather records

Santiago del Estero Weather History for the Previous 24 Hours

Scroll right to see more
 ConditionsComfort  
Time TempWeatherWind HumidityBarometerVisibility
5:00 pm
Thu, Dec 5
86 °FSunny.5 mph35%29.85 "Hg6 mi
4:00 pm86 °FSunny.6 mph36%29.88 "Hg6 mi
3:00 pm84 °FPassing clouds.6 mph38%29.93 "Hg6 mi
2:00 pm82 °FPassing clouds.5 mph40%29.96 "Hg6 mi
1:00 pm80 °FPassing clouds.6 mph42%29.99 "Hg6 mi
12:00 pm79 °FPassing clouds.5 mph44%30.03 "Hg6 mi
11:00 am77 °FSunny.5 mph53%30.05 "Hg6 mi
10:00 am75 °FSunny.2 mph56%30.07 "Hg6 mi
9:00 am71 °FSunny.3 mph69%30.09 "Hg6 mi
8:00 am63 °FSunny.2 mph87%30.07 "Hg6 mi
7:00 am56 °FSunny.No wind98%30.08 "Hg6 mi
6:00 am57 °FClear.No wind98%30.06 "Hg6 mi
5:00 am59 °FClear.No wind95%30.06 "Hg6 mi
4:00 am61 °FPassing clouds.5 mph95%30.05 "Hg6 mi
3:00 am62 °FOvercast.No wind94%30.06 "Hg6 mi
2:00 am62 °FOvercast.No wind94%30.07 "Hg6 mi
1:00 am63 °FOvercast.3 mph93%30.09 "Hg6 mi
12:00 am63 °FOvercast.No wind92%30.09 "Hg6 mi
11:00 pm
Wed, Dec 4
63 °FOvercast.5 mph91%30.08 "Hg6 mi
10:00 pm64 °FOvercast.6 mph90%30.06 "Hg6 mi
9:00 pm64 °FOvercast.8 mph85%30.03 "Hg6 mi
8:00 pm64 °FOvercast.9 mph82%30.00 "Hg6 mi
7:00 pm64 °FOvercast.12 mph87%29.98 "Hg6 mi
Weather by CustomWeather, © 2019

See weather overview

Advertising